When you browse on this site, cookies collect data to enhance your experience and personalize the content and advertising you see.
Visit our Privacy Policy to learn more. By continuing to use the site, you agree to this use of cookies and data.
  • In France
  • List of Countries
  • For 7 days
  • Water Temperature
  • Weather Map
  • Weather Widgets
  • user-avatar
    Login

    Hourly Weather Chelmsford

    Today, 21 September, Saturday

    Time Temperature Precipitation Wind Pressure Humidity
    00:00 +15°C° 0 mm 5 mps 761 mmHg 68%
    01:00 +14°C° 0 mm 5 mps 761 mmHg 69%
    02:00 +14°C° 0 mm 5 mps 760 mmHg 70%
    03:00 +14°C° 0 mm 5 mps 759 mmHg 71%
    04:00 +14°C° 0 mm 5 mps 759 mmHg 72%
    05:00 +13°C° 0 mm 5 mps 759 mmHg 72%
    06:00 +13°C° 0 mm 5 mps 758 mmHg 72%
    07:00 +14°C° 0 mm 5 mps 758 mmHg 67%
    08:00 +16°C° 0 mm 6 mps 758 mmHg 62%
    09:00 +17°C° 0 mm 6 mps 758 mmHg 57%
    10:00 +19°C° 0 mm 6 mps 757 mmHg 54%
    11:00 +20°C° 0 mm 6 mps 757 mmHg 52%
    12:00 +21°C° 0 mm 6 mps 756 mmHg 50%
    13:00 +21°C° 0 mm 6 mps 756 mmHg 50%
    14:00 +22°C° 0 mm 5 mps 755 mmHg 50%
    15:00 +22°C° 0 mm 5 mps 755 mmHg 50%
    16:00 +21°C° 0 mm 5 mps 754 mmHg 56%
    17:00 +20°C° 0 mm 4 mps 754 mmHg 61%
    18:00 +19°C° 0 mm 4 mps 754 mmHg 67%
    19:00 +19°C° 0 mm 4 mps 753 mmHg 69%
    20:00 +19°C° 0 mm 4 mps 753 mmHg 71%
    21:00 +19°C° 0 mm 4 mps 753 mmHg 73%
    22:00 +19°C° 0 mm 4 mps 753 mmHg 74%
    23:00 +19°C° 0 mm 4 mps 752 mmHg 75%

    Tomorrow, 22 September, Sunday

    Time Temperature Precipitation Wind Pressure Humidity
    00:00 +19°C° 0 mm 4 mps 752 mmHg 76%
    01:00 +18°C° 0 mm 4 mps 751 mmHg 77%
    02:00 +18°C° 0 mm 4 mps 751 mmHg 78%
    03:00 +18°C° 0 mm 3 mps 751 mmHg 78%
    04:00 +18°C° 0.2 mm 3 mps 750 mmHg 80%
    05:00 +18°C° 0.2 mm 3 mps 750 mmHg 81%
    06:00 +18°C° 0.2 mm 3 mps 750 mmHg 82%
    07:00 +19°C° 0 mm 4 mps 750 mmHg 79%
    08:00 +20°C° 0 mm 4 mps 750 mmHg 76%
    09:00 +21°C° 0 mm 5 mps 750 mmHg 73%
    10:00 +21°C° 0 mm 5 mps 750 mmHg 74%
    11:00 +21°C° 0 mm 5 mps 750 mmHg 74%
    12:00 +21°C° 0 mm 5 mps 750 mmHg 75%
    13:00 +20°C° 0.8 mm 5 mps 750 mmHg 77%
    14:00 +18°C° 0.8 mm 4 mps 750 mmHg 79%
    15:00 +17°C° 0.8 mm 4 mps 750 mmHg 81%
    16:00 +17°C° 0 mm 4 mps 751 mmHg 81%
    17:00 +17°C° 0 mm 4 mps 751 mmHg 81%
    18:00 +17°C° 0 mm 4 mps 751 mmHg 81%
    19:00 +16°C° 0 mm 3 mps 751 mmHg 83%
    20:00 +16°C° 0 mm 3 mps 752 mmHg 85%
    21:00 +14°C° 0 mm 3 mps 752 mmHg 87%
    22:00 +14°C° 0 mm 3 mps 752 mmHg 88%
    23:00 +14°C° 0 mm 3 mps 752 mmHg 88%

    Day after tomorrow, 23 September, Monday

    Time Temperature Precipitation Wind Pressure Humidity
    00:00 +14°C° 0 mm 4 mps 752 mmHg 89%
    01:00 +14°C° 0 mm 3 mps 752 mmHg 90%
    02:00 +13°C° 0 mm 3 mps 752 mmHg 92%
    03:00 +13°C° 0 mm 3 mps 753 mmHg 93%
    04:00 +13°C° 0 mm 4 mps 753 mmHg 92%
    05:00 +13°C° 0 mm 4 mps 754 mmHg 92%
    06:00 +12°C° 0 mm 5 mps 754 mmHg 91%
    07:00 +14°C° 0 mm 5 mps 754 mmHg 84%
    08:00 +15°C° 0 mm 5 mps 755 mmHg 76%
    09:00 +16°C° 0 mm 6 mps 755 mmHg 68%
    10:00 +17°C° 0 mm 5 mps 755 mmHg 62%
    11:00 +19°C° 0 mm 5 mps 755 mmHg 56%
    12:00 +20°C° 0 mm 5 mps 755 mmHg 50%
    13:00 +20°C° 0 mm 6 mps 755 mmHg 51%
    14:00 +21°C° 0 mm 6 mps 755 mmHg 51%
    15:00 +21°C° 0 mm 7 mps 755 mmHg 52%
    16:00 +20°C° 0 mm 6 mps 755 mmHg 57%
    17:00 +17°C° 0 mm 5 mps 754 mmHg 61%
    18:00 +17°C° 0 mm 4 mps 754 mmHg 66%
    19:00 +16°C° 0.3 mm 5 mps 754 mmHg 71%
    20:00 +16°C° 0.3 mm 5 mps 754 mmHg 75%
    21:00 +16°C° 0.3 mm 6 mps 753 mmHg 80%
    22:00 +16°C° 1.3 mm 6 mps 753 mmHg 83%
    23:00 +16°C° 1.3 mm 6 mps 752 mmHg 85%

    24 September, Tuesday

    Time Temperature Precipitation Wind Pressure Humidity
    00:00 +15°C° 1.3 mm 6 mps 752 mmHg 88%
    01:00 +16°C° 0.6 mm 6 mps 751 mmHg 89%
    02:00 +16°C° 0.6 mm 7 mps 751 mmHg 90%
    03:00 +16°C° 0.6 mm 7 mps 750 mmHg 90%
    04:00 +16°C° 0.8 mm 7 mps 749 mmHg 91%
    05:00 +16°C° 0.8 mm 7 mps 748 mmHg 91%
    06:00 +16°C° 0.8 mm 7 mps 747 mmHg 92%
    07:00 +16°C° 2.9 mm 8 mps 747 mmHg 90%
    08:00 +16°C° 2.9 mm 8 mps 746 mmHg 89%
    09:00 +16°C° 2.9 mm 9 mps 746 mmHg 87%
    10:00 +16°C° 0.2 mm 8 mps 745 mmHg 83%
    11:00 +16°C° 0.2 mm 8 mps 745 mmHg 80%
    12:00 +17°C° 0.2 mm 7 mps 745 mmHg 76%
    13:00 +17°C° 0.3 mm 7 mps 745 mmHg 74%
    14:00 +17°C° 0.3 mm 6 mps 746 mmHg 72%
    15:00 +17°C° 0.3 mm 5 mps 746 mmHg 71%
    16:00 +16°C° 0.2 mm 6 mps 746 mmHg 72%
    17:00 +16°C° 0.2 mm 6 mps 746 mmHg 74%
    18:00 +15°C° 0.2 mm 6 mps 747 mmHg 75%
    19:00 +14°C° 0 mm 6 mps 747 mmHg 76%
    20:00 +14°C° 0 mm 6 mps 748 mmHg 78%
    21:00 +13°C° 0 mm 6 mps 748 mmHg 79%
    22:00 +13°C° 0 mm 6 mps 748 mmHg 79%
    23:00 +11°C° 0 mm 6 mps 748 mmHg 79%

    25 September, Wednesday

    Time Temperature Precipitation Wind Pressure Humidity
    00:00 +11°C° 0 mm 6 mps 749 mmHg 78%
    01:00 +11°C° 0 mm 6 mps 749 mmHg 81%
    02:00 +11°C° 0 mm 6 mps 749 mmHg 83%
    03:00 +11°C° 0 mm 6 mps 749 mmHg 85%
    04:00 +11°C° 0.2 mm 6 mps 749 mmHg 86%
    05:00 +11°C° 0.2 mm 6 mps 749 mmHg 86%
    06:00 +13°C° 0.2 mm 6 mps 749 mmHg 86%
    07:00 +13°C° 0 mm 6 mps 749 mmHg 83%
    08:00 +14°C° 0 mm 6 mps 749 mmHg 80%
    09:00 +15°C° 0 mm 6 mps 749 mmHg 77%
    10:00 +15°C° 0.1 mm 6 mps 749 mmHg 77%
    11:00 +16°C° 0.1 mm 6 mps 749 mmHg 78%
    12:00 +16°C° 0.1 mm 6 mps 749 mmHg 78%
    13:00 +16°C° 0.4 mm 6 mps 749 mmHg 81%
    14:00 +16°C° 0.4 mm 6 mps 748 mmHg 83%
    15:00 +16°C° 0.4 mm 5 mps 748 mmHg 86%
    16:00 +15°C° 0.5 mm 6 mps 748 mmHg 87%
    17:00 +15°C° 0.5 mm 6 mps 748 mmHg 88%
    18:00 +15°C° 0.5 mm 6 mps 748 mmHg 89%
    19:00 +15°C° 0.7 mm 6 mps 748 mmHg 90%
    20:00 +16°C° 0.7 mm 6 mps 747 mmHg 90%
    21:00 +16°C° 0.7 mm 6 mps 747 mmHg 91%
    22:00 +16°C° 0.2 mm 6 mps 747 mmHg 90%
    23:00 +16°C° 0.2 mm 6 mps 747 mmHg 90%

    26 September, Thursday

    Time Temperature Precipitation Wind Pressure Humidity
    00:00 +16°C° 0.2 mm 6 mps 747 mmHg 89%
    01:00 +16°C° 0.2 mm 6 mps 746 mmHg 90%
    02:00 +16°C° 0.2 mm 6 mps 745 mmHg 91%
    03:00 +16°C° 0.2 mm 7 mps 745 mmHg 91%
    04:00 +16°C° 1.8 mm 7 mps 744 mmHg 91%
    05:00 +17°C° 1.8 mm 7 mps 743 mmHg 91%
    06:00 +17°C° 1.8 mm 8 mps 743 mmHg 91%
    07:00 +17°C° 0.4 mm 7 mps 743 mmHg 88%
    08:00 +17°C° 0.4 mm 6 mps 743 mmHg 85%
    09:00 +17°C° 0.4 mm 5 mps 743 mmHg 81%
    10:00 +17°C° 0.3 mm 6 mps 743 mmHg 74%
    11:00 +18°C° 0.3 mm 7 mps 743 mmHg 67%
    12:00 +18°C° 0.3 mm 9 mps 744 mmHg 60%
    13:00 +18°C° 0.1 mm 8 mps 744 mmHg 60%
    14:00 +18°C° 0.1 mm 8 mps 744 mmHg 59%
    15:00 +17°C° 0.1 mm 8 mps 744 mmHg 59%
    16:00 +16°C° 0.1 mm 7 mps 744 mmHg 63%
    17:00 +16°C° 0.1 mm 7 mps 745 mmHg 67%
    18:00 +15°C° 0.1 mm 6 mps 745 mmHg 70%
    19:00 +14°C° 0 mm 6 mps 745 mmHg 72%
    20:00 +14°C° 0 mm 7 mps 745 mmHg 73%
    21:00 +14°C° 0 mm 7 mps 745 mmHg 75%
    22:00 +14°C° 0 mm 7 mps 745 mmHg 75%
    23:00 +14°C° 0 mm 7 mps 745 mmHg 75%
    Show more